User: anonymous   Login
Location: Unspecified
(0.0000°N, 0.0000°E)
Time: 20:06:36
(UTC+00:00)
Language:

STSS DEMO 2 (USA 209) - Orbit

View from above orbital plane
View from above orbital plane
View from above satellite
View from above satellite

Ground track
Ground track

The orbit data is extracted from the following two-line orbital elements,

1 35938U 09052B   21128.00677055 0.00000000  00000-0  00000-0 0    01
2 35938  57.9968 141.8938 0004378 327.0524  32.9475 12.79343280    02
Epoch (UTC): 08 May 2021 00:09:44
Eccentricity: 0.0004378
inclination: 57.9968°
perigee height: 1341 km
apogee height: 1347 km
right ascension of ascending node: 141.8938°
argument of perigee: 327.0524°
revolutions per day: 12.79343280
mean anomaly at epoch: 32.9475°
orbit number at epoch: 0

The dashed part of the orbit path shows where the satellite is in the earth's shadow,  

DLR